Flag for India Weather past 2 weeks in Dharamshala, Himachal Pradesh, India

Now
66 °F

Fog.


Feels Like: 66 °F
Forecast: 51 / 75 °F
Wind: No wind

Location: Amritsar Airport

Current Time: Apr 22, 2015 at 5:34:27 AM

Latest Report: Apr 22, 2015 at 4:00 AM


Visibility: 2 mi

Pressure: 29.68 "Hg

Humidity: 73%

Dew point: 57 °F

Location of DharamshalaLocation

Historic Weather in Dharamshala — Graph

°F

Dharamshala temperature yesterday

Maximum temperature yesterday: 97 °F (at 2:30 PM)
Minimum temperature yesterday: 66 °F (at 5:30 AM)
Average temperature yesterday: 82 °F

Past Weeks' High & Low Weather Summary

 TemperatureHumidityPressure
High100 °F (Apr 20, 2:30 PM)100% (Apr 7, 4:30 AM)30.12 "Hg (Apr 7, 4:30 AM)
Low55 °F (Apr 8, 6:00 AM)18% (Apr 21, 5:00 PM)29.59 "Hg (Apr 19, 6:30 PM)
Average77 °F65%29.84 "Hg
* Reported Apr 7 4:00 AM — Apr 22 4:00 AM, Dharamshala, Weather by CustomWeather, © 2015

Note: Actual official high and low records may vary slightly from our data, if they occured in-between our weather recording intervals... More about our weather records

Advertising

Dharamshala weather history for previous 24 hours

 ConditionsComfort  
Time TempWeatherWind HumidityBarometerVisibility
4:00 AM
Wed, Apr 22
66 °FFog.No wind73%29.68 "Hg2 mi
3:30 AM64 °FFog.1 mph83%29.68 "Hg2 mi
3:00 AM68 °FFog.1 mph73%29.68 "Hg2 mi
2:30 AM66 °FFog.No wind78%29.71 "Hg2 mi
2:00 AM68 °FHaze.No wind73%29.71 "Hg2 mi
1:30 AM70 °FHaze.No wind69%29.71 "Hg2 mi
1:00 AM70 °FHaze.No wind69%29.74 "Hg2 mi
12:30 AM72 °FPassing clouds.No wind61%29.74 "Hg2 mi
12:00 AM72 °FPassing clouds.No wind65%29.74 "Hg2 mi
11:30 PM
Tue, Apr 21
73 °FPassing clouds.No wind61%29.74 "Hg2 mi
11:00 PM75 °FPassing clouds.No wind54%29.77 "Hg2 mi
10:30 PM75 °FPassing clouds.2 mph54%29.77 "Hg2 mi
10:00 PM75 °FPassing clouds.No wind57%29.77 "Hg2 mi
9:30 PM77 °FPassing clouds.No wind51%29.77 "Hg2 mi
9:00 PM79 °FPassing clouds.No wind45%29.77 "Hg2 mi
8:30 PM81 °FPassing clouds.1 mph42%29.77 "Hg2 mi
8:00 PM84 °FPassing clouds.6 mph35%29.74 "Hg3 mi
7:30 PM86 °FScattered clouds.5 mph31%29.74 "Hg3 mi
7:00 PM88 °FScattered clouds.No wind29%29.74 "Hg3 mi
6:30 PM91 °FScattered clouds.6 mph24%29.71 "Hg3 mi
6:00 PM93 °FPassing clouds.8 mph21%29.71 "Hg3 mi
5:30 PM95 °FDuststorm.9 mph22%29.71 "Hg3 mi
5:00 PM97 °FDuststorm.13 mph18%29.71 "Hg3 mi
4:30 PM95 °FDuststorm.12 mph22%29.71 "Hg3 mi
4:00 PM97 °FDuststorm.12 mph20%29.74 "Hg3 mi
3:30 PM97 °FDuststorm.9 mph20%29.74 "Hg3 mi
3:00 PM97 °FDuststorm.12 mph20%29.74 "Hg3 mi
2:30 PM97 °FDuststorm.9 mph23%29.77 "Hg3 mi
2:00 PM95 °FDuststorm.12 mph22%29.77 "Hg3 mi
1:30 PM93 °FDuststorm.10 mph28%29.80 "Hg3 mi
1:00 PM95 °FDuststorm.10 mph30%29.80 "Hg3 mi
12:30 PM93 °FDuststorm.10 mph32%29.80 "Hg3 mi
12:00 PM91 °FDuststorm.9 mph36%29.80 "Hg3 mi
11:30 AM91 °FDuststorm.9 mph34%29.83 "Hg3 mi
11:00 AM90 °FHaze.8 mph38%29.83 "Hg3 mi
10:30 AM88 °FHaze.7 mph43%29.83 "Hg3 mi
10:00 AM86 °FHaze.7 mph43%29.83 "Hg3 mi
9:30 AM84 °FHaze.6 mph51%29.80 "Hg3 mi
8:30 AM77 °FFog.8 mph65%29.80 "Hg2 mi
8:00 AM73 °FFog.7 mph74%29.80 "Hg2 mi
7:30 AM70 °FFog.3 mph83%29.80 "Hg2 mi
7:00 AM68 °FFog.No wind83%29.77 "Hg2 mi
6:30 AM66 °FFog.No wind83%29.77 "Hg2 mi
6:00 AM66 °FFog.No wind83%29.77 "Hg2 mi
5:30 AM66 °FFog.2 mph83%29.77 "Hg2 mi
5:00 AM68 °FFog.1 mph78%29.74 "Hg2 mi
Weather by CustomWeather, © 2015

See weather overviewHow to use our weather pages